Regional Weather Roundup
Issued by NWS

Home | Current Version | Previous Version | Text Only | Print | Product List | Glossary On
Versions: 1 2 3 4 5 6 7 8 9 10 11 12 13 14 15 16 17 18 19 20 21 22 23 24 25 26 27 28 29 30 31 32 33 34 35 36 37 38 39 40 41 42 43 44 45 46 47 48 49 50
000
ASUS45 KABQ 171610
RWRNM
NEW MEXICO REGIONAL WEATHER ROUNDUP
NATIONAL WEATHER SERVICE ALBUQUERQUE NM
1000 AM MDT THU JUN 17 2021

NOTE: "FAIR" MEANS FEW OR NO CLOUDS BELOW 12,000 FEET AGL WITH NO
       SIGNIFICANT WEATHER OR OBSTRUCTIONS TO VISION.

      THIS PRODUCT IS RELEASED AS TWO VERSIONS.  ONE VERSION NEAR
      THE TOP OF THE HOUR CONTAINING PRELIMINARY DATA FROM ALBUQUERQUE
      AND OTHER STATIONS.  A FINAL VERSION WITH ADDITIONAL DATA IS
      ISSUED ABOUT 10 MINUTES AFTER THE HOUR.

NMZ201-203-204-210>218-171700-
NORTHWEST PLATEAU/NORTHCENTRAL MOUNTAINS

CITY           SKY/WX    TMP DP  RH WIND       PRES   REMARKS
FARMINGTON     FAIR      86  38  18 E12       30.16F
LOS ALAMOS     FAIR      76  38  25 E5        30.35F
SANTA FE       FAIR      82  38  20 VRB3      30.28F
TAOS           FAIR      77  40  26 CALM      30.36F
ANGEL FIRE     FAIR      66  45  46 CALM      30.44F

$$
NMZ202-205>209-241-402-403-171700-
WESTCENTRAL MOUNTAINS/SOUTHWEST MOUNTAINS

CITY           SKY/WX    TMP DP  RH WIND       PRES   REMARKS
GALLUP         FAIR      86  36  16 W12       30.25F
GRANTS         FAIR      84  33  16 S10       30.29F
SILVER CITY    FAIR      80  41  24 E10G17    30.25F

$$
NMZ407-409-411-412-171700-
SOUTHERN DESERTS

CITY           SKY/WX    TMP DP  RH WIND       PRES   REMARKS
DEMING         FAIR      85  40  20 SE13      30.17F
LAS CRUCES     FAIR      83  41  22 SE6       30.20S
HOLLOMAN AFB   FAIR      85  48  26 S12       30.19F
ALAMOGORDO     FAIR      84  50  30 S8        30.18S
T OR C         FAIR      83  44  25 S10G20    30.20F

$$
NMZ219>223-171700-
CENTRAL VALLEYS/CENTRAL HIGHLANDS

CITY           SKY/WX    TMP DP  RH WIND       PRES   REMARKS
ALBUQUERQUE    FAIR      83  40  21 S14       30.22F
DOUBLE EAGLE   SUNNY     82  36  18 SE15G22   30.26S
CLINES CORNERS FAIR      76  39  26 SW20      30.36S
BELEN          FAIR      85  33  15 S21       30.21F
SOCORRO        FAIR      84  36  18 S17G25    30.20F

$$
NMZ224>226-239-240-171700-
SOUTHCENTRAL MOUNTAINS

CITY           SKY/WX    TMP DP  RH WIND       PRES   REMARKS
RUIDOSO        FAIR      77  23  13 SE10      30.37F

$$
NMZ227>231-171700-
NORTHEAST HIGHLANDS/NORTHEAST PLAINS

CITY           SKY/WX    TMP DP  RH WIND       PRES   REMARKS
RATON          FAIR      78  40  25 CALM      30.25F
CLAYTON        FAIR      87  42  20 SW16      30.14F

$$
NMZ232>237-171700-
EASTCENTRAL PLAINS

CITY           SKY/WX    TMP DP  RH WIND       PRES   REMARKS
SANTA ROSA     FAIR      82  37  20 SE7       30.18S
TUCUMCARI      FAIR      91  46  21 SW20G32   30.10F
CANNON AFB     FAIR      85  52  31 SW15G23   30.17F
CLOVIS AIRPORT FAIR      86  55  34 SW17      30.18F

$$
NMZ028-029-033-238-171700-
SOUTHEAST PLAINS

CITY           SKY/WX    TMP DP  RH WIND       PRES   REMARKS
ROSWELL        FAIR      87  50  27 S16G22    30.14F
ARTESIA        FAIR      84  54  34 S10       30.16F
CARLSBAD       FAIR      86  50  28 SE12      30.12F
HOBBS          SUNNY     84  52  32 S9G15     30.17S


$$



USA.gov is the U.S. government's official web portal to all federal, state and local government web resources and services.